Location: Alexander
(41.3564°N, 81.5960°W)
Time: 08:29:35
(UTC+00:00)

Cosmos 1825 Rocket - Pass Details

Date: 24 January 2021
Orbit: 604 x 630 km, 82.5° (Epoch: 03 March)

Event Time Altitude Azimuth Distance (km) Brightness Sun altitude
Rises 12:09:00 0° 345° (NNW) 2,929 6.7 -7.0°
Reaches altitude 10° 12:11:19 10° 339° (NNW) 2,018 5.8 -6.6°
Maximum altitude 12:15:33 44° 268° (W) 881 4.0 -5.8°
Drops below altitude 10° 12:19:46 10° 196° (SSW) 2,002 6.3 -5.1°
Sets 12:22:04 0° 190° (S) 2,903 7.2 -4.7°
